Location: Unspecified
(43.0000°N, 0.0000°E)
Time: 00:54:25
(UTC+00:00)

METEOR M2 - Visible Passes

Search period start: 20 August 2019 00:00
Search period end: 30 August 2019 00:00
Orbit: 818 x 828 km, 98.5° (Epoch: 19 August)

Date Brightness Start Highest point End Pass type
(mag) Time Alt. Az. Time Alt. Az. Time Alt. Az.
20 Aug ? 19:53:44 10° SSE 19:59:06 86° WSW 20:04:29 10° NNW visible
20 Aug ? 21:38:45 10° W 21:40:00 11° W 21:41:16 10° WNW visible
21 Aug ? 19:33:57 10° SSE 19:39:14 64° ENE 19:44:32 10° N visible
21 Aug ? 21:16:26 10° SW 21:19:50 17° W 21:23:16 10° NW visible
22 Aug ? 19:14:24 10° SE 19:19:26 43° ENE 19:24:28 10° N visible
22 Aug ? 20:55:21 10° SSW 20:59:44 25° W 21:04:09 10° NW visible
23 Aug ? 20:34:45 10° SSW 20:39:42 38° W 20:44:40 10° NNW visible
24 Aug ? 20:14:28 10° S 20:19:43 57° W 20:25:00 10° NNW visible
25 Aug ? 19:54:26 10° SSE 19:59:47 85° WSW 20:05:11 10° NNW visible
25 Aug ? 21:39:45 10° W 21:40:43 10° W 21:41:41 10° WNW visible
26 Aug ? 19:34:38 10° SSE 19:39:55 66° ENE 19:45:14 10° N visible
26 Aug ? 21:17:13 10° SW 21:20:33 17° W 21:23:54 10° NW visible
27 Aug ? 19:15:05 10° SE 19:20:07 44° ENE 19:25:11 10° N visible
27 Aug ? 20:56:07 10° SSW 21:00:26 25° W 21:04:49 10° NW visible
28 Aug ? 20:35:29 10° SSW 20:40:24 37° W 20:45:21 10° NNW visible
29 Aug ? 20:15:11 10° S 20:20:25 56° W 20:25:41 10° NNW visible
